星链-2461 (STARLINK-2461 )

导读

STARLINK-2461是美国SpaceX公司星链(Starlink)卫星互联网星座的一员,于2021年5月9日发射升空。星链项目旨在通过近地轨道卫星组网,为全球提供高速低延迟互联网服务,重点覆盖地面网络难以抵达的偏远地区、海洋及空中航线。 作为已大规模部署的星链星座组成部分,该卫星运行于近地轨道,和其他数千颗卫星共同支撑起全球卫星互联网服务,目前星链已在160多个国家拥有超千万活跃用户,同时也引发了太空安全和天文观测等领域的争议。

Basic Information
目录编号:
48428
目录名称:
STARLINK-2461
国际标识:
2021-040A
轨道中心:
EARTH
卫星名称:
星链-2461
卫星全名:
星链-2461 (STARLINK-2461 )
卫星状态:
在轨 (已飞行1944 天)
发射日期:
2021-05-09 UTC
国别 :
美国 (US)
星等 :
--
Orbit Information
数据来源 国际轨道数据
星历时间: 2026-09-04T11:30:19+0800
5小时前
查看轨道信息
半长轴: 6848.898km
偏心率: 0.0001171
轨道倾角: 53.160°
近地点辐角 93.016°
升交点赤经 68.254°
平近点角 267.098°
近地点: 469.958km
远地点: 471.564km
周期: 94.014分钟
每日圈数: 15.316932
Detailed Information
固有亮度:
5
最大亮度:
2.5
卫星平台:
Starlink V1.0
覆盖范围:
全球
运营商:
太空探索技术公司
运营商所在国:
美国
制造商(研发单位):
太空探索技术公司
制造商所在国:
美国
使用方式:
暂无
Satellite Introduction
星链(Starlink)计划是由太空探索技术公司(SpaceX)提出的一个巨型低轨卫星互联网星座项目,计划在2019年至2024年间在太空搭建由约1.2万颗卫星组成的“星链”网络,其中1584颗将部署在地球上空550千米处的近地轨道,并从2020年开始工作。该卫星仍在工作。
2D Orbit Map
3D Orbit Map
Orbit Altitude Analysis Chart
Orbit Inclination Analysis Chart
Orbit Comprehensive Analysis Chart
View Comprehensive Chart
Conjunction Data List
Event ID Objects TCA Miss Dist (km) Collision Risk Probability Collision Risk Index (CRI) Action
CDM_260905-104204-279404-842821
DSAT (42794)
2026-09-05T
10:42:03+0000
2.123 km
极远距离
2.456962E-6 低风险 0.43
CDM_260829-080804-842806-877821
2026-08-29T
08:08:42+0000
2.979 km
极远距离
1.348773E-6 低风险 0.38